This is the latest recevied weather packets stored in our database for station/object IA5FYI-13. If no packets are shown the sender has not sent any weather packets the latest 10 day(s).
| Time | Temp. | Humidity | Pressure | Rain* | Wind** | Luminosity | Snow |
|---|---|---|---|---|---|---|---|
| 1777839612 | 17.22° C | 80% | 1016.9 hPa | 0 mm | - | - | - |
| 1777839312 | 17.22° C | 80% | 1017.3 hPa | 0 mm | - | - | - |
| 1777838430 | 17.22° C | 81% | 1017.3 hPa | 0 mm | - | - | - |
| 1777834830 | 17.22° C | 81% | 1016.9 hPa | 0 mm | - | - | - |
| 1777833022 | 17.22° C | 79% | 1016.6 hPa | 0 mm | - | - | - |
| 1777832709 | 17.22° C | 78% | 1016.6 hPa | 0 mm | - | - | - |
| 1777831813 | 17.78° C | 77% | 1016.3 hPa | 0 mm | - | - | - |
| 1777830312 | 17.78° C | 75% | 1016.6 hPa | 0 mm | - | - | - |
| 1777829110 | 17.78° C | 72% | 1016.3 hPa | 0 mm | - | - | - |
| 1777828512 | 18.89° C | 70% | 1016.3 hPa | 0 mm | - | - | - |
| 1777828213 | 18.89° C | 69% | 1016.3 hPa | 0 mm | - | - | - |
| 1777827630 | 18.89° C | 68% | 1016.6 hPa | 0 mm | - | - | - |
| 1777824912 | 21.11° C | 64% | 1016.6 hPa | 0 mm | - | - | - |
| 1777824309 | 21.11° C | 65% | 1016.3 hPa | 0 mm | - | - | - |
| 1777824031 | 21.11° C | 64% | 1016.3 hPa | 0 mm | - | - | - |
| 1777821012 | 21.11° C | 58% | 1016.6 hPa | 0 mm | - | - | - |
| 1777818012 | 22.22° C | 58% | 1016.9 hPa | 0 mm | - | - | - |
| 1777817412 | 22.22° C | 60% | 1016.9 hPa | 0 mm | - | - | - |
| 1777815612 | 21.11° C | 62% | 1017.3 hPa | 0 mm | - | - | - |
| 1777811422 | 21.11° C | 49% | 1018.3 hPa | 0 mm | - | - | - |
| 1777810813 | 21.11° C | 44% | 1018.6 hPa | 0 mm | - | - | - |
| 1777809630 | 21.11° C | 54% | 1018.6 hPa | 0 mm | - | - | - |
| 1777806030 | 18.89° C | 66% | 1018.6 hPa | 0 mm | - | - | - |
| 1777802709 | 18.89° C | 73% | 1019.3 hPa | 0 mm | - | - | - |
| 1777801812 | 18.89° C | 70% | 1019.3 hPa | 0 mm | - | - | - |
* Rain latest hour (hover to see other rain measurements)
** Current wind speed in m/s (hover to see current wind gust speed)